Weather Service Report


723 
ASUS45 KCYS 290510
RWRWY 

WYOMING REGIONAL WEATHER ROUNDUP
NATIONAL WEATHER SERVICE CHEYENNE WY
1100 PM MDT TUE JUN 28 2016

NOTE:  "FAIR" INDICATES FEW OR NO CLOUDS BELOW 12,000 FEET
WITH NO SIGNIFICANT WEATHER AND/OR OBSTRUCTIONS TO VISIBILITY.

WYZ001-290600-
YELLOWSTONE NATIONAL PARK
  
CITY           SKY/WX    TMP DP  RH WIND       PRES   REMARKS
LK YELLOWSTONE   N/A     47  45  93 NW3       30.40R                  
W YELLOWSTONE  NOT AVBL                                               

$$
WYZ002>013-054>058-071-098>099-290600-
NORTHERN WYOMING
  
CITY           SKY/WX    TMP DP  RH WIND       PRES   REMARKS
JACKSON        FAIR      59  37  44 CALM      30.28                   
CODY           FAIR      66  43  42 CALM      30.19                   
GREYBULL       FAIR      80  46  30 NW8       30.07S                  
WORLAND        FAIR      79  40  24 VRB3      30.09F                  
SHERIDAN       FAIR      67  53  61 S6        30.14R                  
BUFFALO        FAIR      70  48  45 NW9       30.21R                  
GILLETTE       FAIR      63  46  54 S5        30.15R                  
HULETT         FAIR      68  52  56 CALM      30.17R                  
NEWCASTLE      FAIR      59  52  77 N6        30.16                   

$$
WYZ014>020-022>026-101>103-290600-
CENTRAL WYOMING
  
CITY           SKY/WX    TMP DP  RH WIND       PRES   REMARKS
BIG PINEY      FAIR      63  33  32 E5        30.32S                  
PINEDALE       FAIR      55  37  50 W3        30.33F                  
DUBOIS         FAIR      61  28  29 W7        30.34                   
LANDER         FAIR      76  36  23 VRB3      30.25R                  
RIVERTON       FAIR      73  46  38 E18G29    30.21R                  
CASPER         FAIR      65  52  62 E14       30.22R                  
DOUGLAS          N/A    N/A N/A N/A MISG      30.25S                  

$$
WYZ021-027>030-104>119-290600-
SOUTHERN WYOMING
  
CITY           SKY/WX    TMP DP  RH WIND       PRES   REMARKS
EVANSTON       FAIR      66  36  32 SW10      30.36R                  
KEMMERER         N/A     66  36  32 N7        30.35                   
FORT BRIDGER   FAIR      71  35  26 W10       30.37R                  
ROCK SPRINGS   FAIR      71  33  24 SE9       30.31F                  
DIXON          FAIR      68  38  33 S8        30.34R                  
RAWLINS        FAIR      62  34  35 VRB3      30.31R                  
SARATOGA       FAIR      61  37  41 SE3       30.35R                  
LARAMIE        FAIR      59  40  49 E8        30.37R                  
CHEYENNE       FAIR      56  49  77 NE7       30.35R                  
TORRINGTON     FAIR      60  56  86 CALM      30.21F                  
PINE BLUFFS    FAIR      55  50  82 E8        30.29R                  

$$
  

Return to Home page


Western Regional Climate Center, wrcc@dri.edu